[[{"header":{"parameterUnit":"m.s-1","parameterCategory":1,"la1":30.2991,"la2":30.254,"lo1":-89.0895,"lo2":-89.0444,"dy":0.0017,"dx":0.0017,"nx":28,"ny":28,"refTime":"2023-07-31T21:00:00:Z","depth":0,"parameterNumber":2,"parameterNumberName":"U-component_of_WINDS"},"data":[0,0,0,0,0,0,0,0,0,0,0,0,0,0,0,0,0,0,0,0,0,0,0,0,0,0,0,0,0,0,0,0,0,0,0,0,0,0,0,0,0,0,0,0,0,0,0,0,0,0,0,0,0,0,0,0,0,0,-1.2335,-1.2334,0,-1.2217,-1.2215,-1.2214,-1.2121,-1.212,-1.2119,-1.2119,-1.1998,-1.1996,-1.1994,0,0,0,0,0,0,0,0,0,0,0,0,0,-1.2484,-1.2482,-1.2335,-1.2334,-1.2332,-1.2217,-1.2215,-1.2214,-1.2121,-1.212,-1.2119,-1.2118,-1.1999,-1.1996,-1.1993,0,0,0,0,0,0,0,0,0,0,0,0,0,-1.2398,-1.2481,-1.2335,-1.2272,-1.2265,-1.2217,-1.2215,-1.2213,-1.2122,-1.212,-1.2119,-1.2118,-1.2,-1.1996,-1.1993,-1.1998,0,0,-1.1982,-1.1981,0,0,0,0,0,0,0,0,-1.2403,-1.2393,-1.2283,-1.2276,-1.2269,-1.2182,-1.2223,-1.2141,-1.2122,-1.2176,-1.2119,-1.2117,-1.2061,-1.2052,-1.2033,-1.1993,-1.1988,-1.1982,-1.198,-1.1978,-1.1977,0,0,0,0,0,0,0,-1.2409,-1.2397,-1.2288,-1.2282,-1.2273,-1.2251,-1.2237,-1.2208,-1.2128,-1.2171,-1.2164,-1.2152,-1.2056,-1.2036,-1.2029,-1.1986,-1.1982,-1.1979,-1.1977,-1.1975,-1.1947,-1.1948,0,0,0,0,0,0,-1.2424,-1.2403,-1.2292,-1.2285,-1.2334,-1.2249,-1.2234,-1.2211,-1.2128,-1.2113,-1.2153,-1.2148,-1.2043,-1.2034,-1.2025,-1.2027,-1.1978,-1.1975,-1.1973,-1.1946,-1.1947,-1.1949,0,0,0,0,0,0,-1.2428,-1.2415,-1.2297,-1.2342,-1.2325,-1.2248,-1.2224,-1.221,-1.219,-1.2114,-1.2099,-1.2147,-1.2042,-1.203,-1.2006,-1.2022,-1.1973,-1.197,-1.1944,-1.1946,-1.1948,-1.2031,0,0,0,0,0,0,-1.2433,-1.2417,-1.2418,-1.2342,-1.2323,-1.228,-1.2225,-1.2209,-1.2184,-1.2176,-1.2104,-1.2091,-1.204,-1.2012,-1.2003,-1.2016,-1.1967,-1.1942,-1.1945,-1.1948,-1.2027,-1.2036,-1.2044,0,0,0,0,0,-1.2438,-1.2445,-1.2418,-1.2405,-1.2322,-1.2281,-1.227,-1.221,-1.2185,-1.2186,-1.2137,-1.2093,-1.2022,-1.201,-1.1999,-1.2011,-1.1941,-1.1944,-1.1947,-1.2023,-1.2034,-1.2044,0,0,0,0,0,0,-1.2524,-1.2434,-1.2403,-1.2386,-1.2342,-1.2265,-1.2263,-1.2223,-1.2185,-1.218,-1.2108,-1.2093,-1.2077,-1.2042,-1.2031,-1.2014,-1.1976,-1.1977,-1.2037,-1.2047,-1.2056,-1.2065,-1.1964,0,0,0,0,0,-1.2541,-1.2515,-1.2438,-1.243,-1.241,-1.2341,-1.2321,-1.2279,-1.223,-1.2211,-1.2161,-1.2116,-1.2083,-1.2063,-1.2029,-1.2022,-1.2006,-1.2025,-1.2033,-1.2041,-1.2042,-1.2038,-1.2046,-1.1959,-1.1959,-1.1959,0,0,-1.2576,-1.2523,-1.2511,-1.2446,-1.2407,-1.2382,-1.2326,-1.2301,-1.2283,-1.2207,-1.2182,-1.2145,-1.209,-1.2075,-1.2066,-1.2045,-1.2063,-1.2045,-1.2051,-1.2049,-1.2042,-1.2051,-1.2058,-1.1961,-1.1961,-1.1961,0,0,-1.2626,-1.2584,-1.2573,-1.2536,-1.2478,-1.2432,-1.243,-1.236,-1.2332,-1.2306,-1.225,-1.2227,-1.2172,-1.2136,-1.2111,-1.2151,-1.211,-1.2142,-1.2186,-1.2183,-1.219,-1.2196,-1.2212,-1.2218,-1.2144,-1.2144,-1.2145,0,-1.2677,-1.2636,-1.2573,-1.2553,-1.2527,-1.2459,-1.2449,-1.2416,-1.235,-1.2334,-1.2311,-1.2243,-1.2201,-1.2178,-1.2188,-1.2169,-1.2166,-1.215,-1.2194,-1.2199,-1.2204,-1.2218,-1.2224,-1.2149,-1.2148,-1.2148,-1.2147,0,-1.2702,-1.2676,-1.2675,-1.2613,-1.2587,-1.2572,-1.2508,-1.249,-1.2451,-1.2409,-1.2385,-1.2333,-1.2288,-1.2279,-1.2241,-1.2252,-1.2241,-1.2207,-1.2168,-1.2218,-1.223,-1.2235,-1.2155,-1.2153,-1.2152,-1.2151,0,0,-1.2802,-1.2708,-1.2708,-1.2681,-1.2613,-1.2591,-1.2575,-1.2531,-1.2517,-1.2475,-1.246,-1.2416,-1.2386,-1.2357,-1.2314,-1.2312,-1.235,-1.2278,-1.2276,-1.2295,-1.2361,-1.2387,-1.2394,-1.2322,-1.2323,-1.2323,-1.2366,0,-1.2843,-1.2808,-1.2752,-1.2736,-1.2712,-1.2648,-1.2634,-1.2591,-1.2552,-1.2527,-1.2483,-1.2454,-1.2415,-1.2398,-1.2392,-1.2346,-1.2362,-1.2342,-1.2309,-1.2308,-1.2325,-1.24,-1.2427,-1.2469,-1.237,-1.2371,-1.2371,0,-1.2885,-1.2847,-1.2829,-1.2765,-1.2753,-1.2741,-1.2697,-1.2673,-1.2625,-1.2597,-1.2567,-1.2521,-1.2501,-1.2466,-1.2439,-1.2427,-1.2411,-1.2386,-1.2387,-1.2381,-1.2343,-1.2398,-1.2481,-1.2488,-1.2378,-1.2378,-1.2377,0,-1.2961,-1.2905,-1.2888,-1.2866,-1.2791,-1.2784,-1.2753,-1.2703,-1.2681,-1.2644,-1.2629,-1.259,-1.2569,-1.2541,-1.2487,-1.2465,-1.2467,-1.2426,-1.2444,-1.2446,-1.2447,-1.2448,-1.2529,-1.2436,-1.2435,-1.2435,-1.2435,0,-1.3013,-1.3005,-1.2921,-1.2911,-1.2901,-1.2837,-1.2829,-1.2792,-1.2749,-1.2731,-1.2673,-1.2658,-1.2587,-1.2564,-1.2521,-1.2507,-1.2497,-1.2475,-1.2464,-1.248,-1.2483,-1.2468,-1.2464,-1.2437,-1.2437,-1.2436,-1.2436,0,-1.3096,-1.304,-1.3017,-1.2948,-1.2931,-1.2926,-1.2868,-1.2856,-1.2814,-1.2793,-1.2784,-1.2719,-1.2689,-1.2632,-1.2586,-1.2557,-1.2553,-1.2533,-1.2569,-1.2562,-1.2584,-1.2583,-1.2659,-1.2667,-1.2568,-1.2569,-1.257,0,-1.3133,-1.3125,-1.3056,-1.304,-1.3011,-1.2985,-1.2963,-1.2902,-1.2881,-1.2827,-1.2822,-1.2788,-1.2757,-1.2713,-1.2662,-1.2627,-1.2606,-1.2636,-1.2601,-1.2618,-1.2608,-1.261,-1.2609,-1.2644,-1.2645,-1.2646,-1.2647,0,-1.3205,-1.3178,-1.3148,-1.3109,-1.3085,-1.3051,-1.3014,-1.3005,-1.2935,-1.2915,-1.2884,-1.2861,-1.2815,-1.2782,-1.274,-1.2709,-1.2667,-1.2659,-1.2661,-1.2678,-1.27,-1.269,-1.2592,-1.2657,-1.2656,-1.2655,-1.2655,-1.2654,-1.3266,-1.3257,-1.3208,-1.3177,-1.3144,-1.3112,-1.3098,-1.3055,-1.3028,-1.2985,-1.2951,-1.2923,-1.2878,-1.2817,-1.2789,-1.2767,-1.2747,-1.275,-1.2751,-1.2753,-1.2761,-1.2704,-1.2759,-1.2759,-1.2759,-1.2758,-1.2758,0,-1.3336,-1.3302,-1.3274,-1.3225,-1.3202,-1.3165,-1.3124,-1.3107,-1.3083,-1.3044,-1.3015,-1.2981,-1.295,-1.2897,-1.2862,-1.2855,-1.2835,-1.2848,-1.2848,-1.2842,-1.278,-1.2782,-1.2865,-1.2865,-1.2865,-1.2865,-1.2865,-1.2865,-1.337,-1.3353,-1.3321,-1.3289,-1.3254,-1.3227,-1.3206,-1.3177,-1.3146,-1.311,-1.3084,-1.305,-1.3006,-1.2968,-1.2938,-1.2924,-1.2914,-1.2933,-1.2913,-1.2856,-1.2846,-1.2837,-1.2838,-1.2931,-1.2931,-1.2977,-1.2977,-1.2978]},{"header":{"parameterUnit":"m.s-1","parameterCategory":1,"la1":30.2991,"la2":30.254,"lo1":-89.0895,"lo2":-89.0444,"dy":0.0017,"dx":0.0017,"nx":28,"ny":28,"refTime":"2023-07-31T21:00:00:Z","depth":0,"parameterNumber":3,"parameterNumberName":"V-component_of_WINDS"},"data":[0,0,0,0,0,0,0,0,0,0,0,0,0,0,0,0,0,0,0,0,0,0,0,0,0,0,0,0,0,0,0,0,0,0,0,0,0,0,0,0,0,0,0,0,0,0,0,0,0,0,0,0,0,0,0,0,0,0,3.4523,3.4523,0,3.4537,3.4538,3.4538,3.4542,3.4542,3.4542,3.4542,3.4555,3.4555,3.4556,0,0,0,0,0,0,0,0,0,0,0,0,0,3.4496,3.4496,3.4523,3.4523,3.4523,3.4537,3.4538,3.4538,3.4542,3.4542,3.4542,3.4542,3.4555,3.4555,3.4556,0,0,0,0,0,0,0,0,0,0,0,0,0,3.4508,3.4496,3.4523,3.4527,3.4527,3.4537,3.4538,3.4538,3.4542,3.4542,3.4542,3.4541,3.4555,3.4555,3.4556,3.4562,0,0,3.4558,3.4558,0,0,0,0,0,0,0,0,3.4508,3.4509,3.4526,3.4526,3.4527,3.4538,3.4533,3.4546,3.4542,3.4536,3.4542,3.4541,3.4549,3.455,3.4553,3.4563,3.4564,3.4558,3.4558,3.4559,3.4559,0,0,0,0,0,0,0,3.4507,3.4509,3.4528,3.4526,3.4527,3.4527,3.4529,3.4535,3.4543,3.4537,3.4537,3.4539,3.4549,3.4553,3.4554,3.4564,3.4558,3.4559,3.4559,3.4559,3.4579,3.4579,0,0,0,0,0,0,3.4506,3.4508,3.4528,3.4529,3.4517,3.4528,3.453,3.4534,3.4543,3.4544,3.4539,3.4539,3.4552,3.4553,3.4554,3.4562,3.4559,3.4559,3.456,3.4579,3.4579,3.4579,0,0,0,0,0,0,3.4505,3.4507,3.4527,3.4519,3.4521,3.4528,3.4534,3.4535,3.4538,3.4545,3.4546,3.4541,3.4552,3.4553,3.456,3.4562,3.456,3.456,3.4579,3.4579,3.4579,3.4578,0,0,0,0,0,0,3.4504,3.4507,3.451,3.4519,3.4522,3.4534,3.4534,3.4535,3.4539,3.4539,3.4547,3.4548,3.4552,3.4559,3.4561,3.4563,3.4561,3.4578,3.4579,3.4579,3.4578,3.4578,3.4578,0,0,0,0,0,3.4503,3.4509,3.451,3.4513,3.4526,3.4534,3.4536,3.454,3.4539,3.4542,3.4546,3.4548,3.4562,3.456,3.4562,3.4564,3.4578,3.4579,3.4579,3.4578,3.4578,3.4578,0,0,0,0,0,0,3.45,3.451,3.4512,3.452,3.4526,3.4535,3.4538,3.454,3.4546,3.4546,3.4551,3.4552,3.4559,3.4562,3.456,3.4571,3.457,3.4571,3.4568,3.4569,3.4569,3.4568,3.4561,0,0,0,0,0,3.45,3.4507,3.4515,3.4522,3.4525,3.4531,3.4535,3.4538,3.4544,3.4546,3.4551,3.4556,3.4562,3.4566,3.4571,3.4578,3.458,3.4581,3.4581,3.4581,3.4582,3.4585,3.4586,3.458,3.458,3.458,0,0,3.4501,3.4507,3.4511,3.4521,3.4526,3.4532,3.4533,3.454,3.4544,3.4547,3.4554,3.4558,3.4564,3.4571,3.4574,3.4574,3.4583,3.4582,3.4582,3.4582,3.4585,3.4586,3.4586,3.458,3.458,3.458,0,0,3.4505,3.4511,3.4517,3.4522,3.453,3.4534,3.4535,3.4543,3.4546,3.4553,3.4556,3.456,3.457,3.4574,3.4578,3.4583,3.4584,3.4585,3.4586,3.4589,3.459,3.459,3.4592,3.4592,3.4585,3.4585,3.4585,0,3.4505,3.4515,3.452,3.4526,3.453,3.4534,3.454,3.4544,3.4553,3.4555,3.4555,3.4567,3.4572,3.4579,3.4581,3.4584,3.4585,3.4584,3.4589,3.459,3.459,3.4592,3.4592,3.4585,3.4585,3.4585,3.4585,0,3.4514,3.452,3.4524,3.4533,3.4538,3.4544,3.4549,3.4553,3.4556,3.4559,3.4566,3.4572,3.4578,3.458,3.4583,3.4588,3.4588,3.4588,3.4588,3.4591,3.4592,3.4593,3.4585,3.4585,3.4585,3.4585,0,0,3.4516,3.4528,3.4529,3.4533,3.4542,3.4547,3.4552,3.4559,3.4563,3.4568,3.4573,3.4581,3.4581,3.4585,3.4588,3.4591,3.4594,3.4591,3.4591,3.4591,3.46,3.46,3.46,3.4595,3.4595,3.4595,3.46,0,3.4521,3.4533,3.4537,3.4546,3.4552,3.4555,3.456,3.4566,3.4569,3.4574,3.4578,3.4584,3.4584,3.4586,3.4589,3.4593,3.4596,3.4593,3.4599,3.4599,3.4597,3.4601,3.4601,3.4605,3.46,3.46,3.4601,0,3.4529,3.4535,3.4545,3.4552,3.4555,3.456,3.4566,3.4571,3.4577,3.4579,3.4583,3.4586,3.4591,3.459,3.4598,3.4595,3.4598,3.46,3.46,3.4601,3.46,3.4602,3.4606,3.4607,3.4602,3.4601,3.4601,0,3.453,3.454,3.4547,3.4551,3.456,3.4563,3.4567,3.4572,3.4576,3.4581,3.4584,3.459,3.4593,3.4597,3.46,3.4599,3.4607,3.4607,3.4609,3.4609,3.461,3.461,3.4615,3.4612,3.4612,3.4612,3.4612,0,3.4535,3.454,3.4548,3.4552,3.4558,3.4563,3.4569,3.4573,3.4578,3.4583,3.4586,3.459,3.4594,3.4599,3.4602,3.4607,3.4609,3.461,3.4611,3.461,3.461,3.4612,3.4611,3.4612,3.4612,3.4612,3.4612,0,3.4536,3.4542,3.455,3.4558,3.456,3.4564,3.457,3.4574,3.4578,3.4584,3.4585,3.4591,3.4596,3.46,3.4607,3.4609,3.4615,3.4616,3.4613,3.4613,3.4615,3.4615,3.4621,3.4622,3.4619,3.4619,3.4619,0,3.4539,3.4544,3.4552,3.4556,3.456,3.4565,3.4569,3.4574,3.4578,3.4585,3.4588,3.4593,3.4598,3.4607,3.4611,3.4616,3.4617,3.4619,3.4618,3.4616,3.4617,3.4616,3.4616,3.4619,3.4619,3.4619,3.4619,0,3.4543,3.4546,3.4552,3.4558,3.4563,3.4568,3.4574,3.4576,3.4582,3.4586,3.4592,3.4596,3.4603,3.4608,3.4614,3.4617,3.4619,3.4619,3.462,3.4619,3.4617,3.4618,3.4613,3.4619,3.4619,3.4619,3.4619,3.4619,3.4546,3.455,3.4556,3.4562,3.4567,3.4572,3.4576,3.458,3.4585,3.4592,3.4594,3.46,3.4606,3.4613,3.4617,3.4621,3.4621,3.4622,3.4622,3.4622,3.4622,3.4617,3.4622,3.4622,3.4622,3.4622,3.4622,0,3.455,3.4554,3.456,3.4568,3.4572,3.4574,3.458,3.4583,3.4589,3.4594,3.4599,3.4605,3.4611,3.4615,3.4621,3.4623,3.4624,3.4624,3.4624,3.4625,3.4622,3.4621,3.4623,3.4623,3.4623,3.4623,3.4623,3.4623,3.4553,3.4559,3.4562,3.4571,3.4575,3.4582,3.4585,3.4589,3.4593,3.46,3.4605,3.4608,3.4613,3.4619,3.4623,3.4625,3.4626,3.4626,3.4628,3.4625,3.4625,3.4625,3.4623,3.4627,3.4627,3.463,3.463,3.463]}]]